Fort Wayne, IN

4:57 AM EST on November 22, 2019 (GMT -0500)
Fort Wayne International

Weather History for KFWA - September, 2019

Change the Weather History Date:

Thursday, September 12, 2019

  Actual Average Record
Temperature  
Mean Temperature 78 °F 66 °F  
Max Temperature 89 °F 78 °F 95 °F (1897)
Min Temperature 67 °F 54 °F 39 °F (1955)
Degree Days  
Heating Degree Days 0 2  
Month to date heating degree days 10 17  
Since 1 July heating degree days 11 29  
Cooling Degree Days 13 3  
Month to date cooling degree days 50 50  
Year to date cooling degree days 888 767  
Growing Degree Days 28 (Base 50)    
Moisture  
Dew Point 70 °F    
Average Humidity 80    
Maximum Humidity 100    
Minimum Humidity 59    
Precipitation  
Precipitation 0.16 in 0.09 in 1.42 in (1902)
Month to date precipitation 0.31 1.14  
Year to date precipitation 28.58 27.98  
Sea Level Pressure  
Sea Level Pressure 30.12 in    
Wind  
Wind Speed 5 mph (SSE)    
Max Wind Speed 16 mph    
Max Gust Speed 22 mph    
Visibility 8 miles    
Events Rain , Thunderstorm    
T = Trace of Precipitation, MM = Missing Value Source: NWS Daily Summary

Daily Weather History Graph

Daily Weather History Graph

Search for Another Location

Airport or City:

Astronomy

Sep. 12, 2019 Rise Set
Actual Time 7:18 AM EDT 7:55 PM EDT
Civil Twilight 6:50 AM EDT 8:22 PM EDT
Nautical Twilight 6:17 AM EDT 8:55 PM EDT
Astronomical Twilight 5:43 AM EDT 9:29 PM EDT
Moon 7:40 PM EDT (9/12) 5:35 AM EDT (9/12)
Length of Visible Light 13h 32m
Length of Day
12h 37m
Waxing Gibbous, 98% of the Moon is Illuminated
Sep 12
Waxing Gibbous
Sep 14
Full
Sep 21
Last Quarter
Sep 28
New
Oct 5
First Quarter

Hourly Weather History & Observations

Time (EDT) Temp. Heat Index Dew Point Humidity Pressure Visibility Wind Dir Wind Speed Gust Speed Precip Events Conditions
12:54 AM 71.1 °F - 69.1 °F 93% 30.08 in 10.0 mi SSW 3.5 mph - N/A   Scattered Clouds
1:54 AM 70.0 °F - 68.0 °F 93% 30.07 in 10.0 mi SW 5.8 mph - N/A   Mostly Cloudy
2:54 AM 70.0 °F - 68.0 °F 93% 30.07 in 10.0 mi Calm Calm - N/A   Mostly Cloudy
3:54 AM 69.1 °F - 66.9 °F 93% 30.08 in 10.0 mi West 3.5 mph - N/A   Mostly Cloudy
4:54 AM 68.0 °F - 66.9 °F 96% 30.08 in 10.0 mi SSW 5.8 mph - N/A   Mostly Cloudy
5:54 AM 69.1 °F - 68.0 °F 96% 30.07 in 10.0 mi SSW 8.1 mph - N/A   Scattered Clouds
6:54 AM 68.0 °F - 66.9 °F 96% 30.11 in 9.0 mi WNW 4.6 mph - N/A   Scattered Clouds
7:54 AM 68.0 °F - 68.0 °F 100% 30.14 in 3.0 mi Calm Calm - N/A   Scattered Clouds
8:54 AM 72.0 °F - 70.0 °F 93% 30.14 in 6.0 mi Calm Calm - N/A   Partly Cloudy
9:54 AM 75.9 °F - 70.0 °F 82% 30.14 in 10.0 mi Calm Calm - N/A   Partly Cloudy
10:54 AM 78.1 °F - 71.1 °F 79% 30.14 in 10.0 mi SE 3.5 mph - N/A   Partly Cloudy
11:54 AM 81.0 °F 84.1 °F 69.1 °F 67% 30.14 in 10.0 mi Variable 3.5 mph - N/A   Scattered Clouds
12:54 PM 84.0 °F 88.4 °F 70.0 °F 63% 30.14 in 10.0 mi Calm Calm - N/A   Scattered Clouds
1:54 PM 84.9 °F 89.4 °F 70.0 °F 61% 30.13 in 10.0 mi Variable 3.5 mph - N/A   Mostly Cloudy
2:54 PM 87.1 °F 92.8 °F 71.1 °F 59% 30.12 in 10.0 mi ESE 4.6 mph - N/A   Mostly Cloudy
3:54 PM 87.1 °F 93.6 °F 72.0 °F 61% 30.10 in 10.0 mi East 9.2 mph - N/A   Mostly Cloudy
4:41 PM 84.0 °F 89.0 °F 71.1 °F 65% 30.10 in 10.0 mi East 11.5 mph - N/A Thunderstorm Thunderstorm
4:54 PM 82.9 °F 87.5 °F 71.1 °F 67% 30.10 in 10.0 mi ENE 9.2 mph - N/A Thunderstorm Thunderstorm
5:54 PM 80.1 °F 83.8 °F 72.0 °F 76% 30.10 in 8.0 mi East 4.6 mph - 0.00 in Rain , Thunderstorm Light Thunderstorms and Rain
6:07 PM 79.0 °F - 72.0 °F 79% 30.12 in 0.8 mi Calm Calm - 0.00 in Rain , Thunderstorm Light Thunderstorms and Rain
6:12 PM 78.1 °F - 73.0 °F 84% 30.12 in 4.0 mi West 10.4 mph - 0.00 in Rain , Thunderstorm Light Thunderstorms and Rain
6:22 PM 75.0 °F - 71.1 °F 87% 30.13 in 2.0 mi SW 11.5 mph 21.9 mph 0.03 in Rain , Thunderstorm Heavy Thunderstorms and Rain
6:39 PM 73.4 °F - 69.8 °F 88% 30.14 in 3.0 mi South 16.1 mph 21.9 mph N/A Rain , Thunderstorm Thunderstorms and Rain
6:54 PM 73.9 °F - 70.0 °F 87% 30.11 in 8.0 mi South 10.4 mph - 0.14 in Rain , Thunderstorm Light Thunderstorms and Rain
7:07 PM 73.9 °F - 69.1 °F 85% 30.12 in 9.0 mi SSE 10.4 mph - 0.01 in Rain Light Rain
7:34 PM 73.9 °F - 70.0 °F 87% 30.12 in 10.0 mi South 3.5 mph - 0.01 in Rain , Thunderstorm Light Thunderstorms and Rain
7:54 PM 73.0 °F - 70.0 °F 90% 30.11 in 8.0 mi SSW 6.9 mph - 0.02 in Rain , Thunderstorm Light Thunderstorms and Rain
8:20 PM 72.0 °F - 70.0 °F 93% 30.11 in 10.0 mi Calm Calm - 0.00 in   Mostly Cloudy
8:54 PM 71.1 °F - 70.0 °F 96% 30.13 in 10.0 mi Calm Calm - 0.00 in   Mostly Cloudy
9:54 PM 71.1 °F - 70.0 °F 96% 30.14 in 7.0 mi ENE 3.5 mph - N/A   Mostly Cloudy
10:07 PM 71.1 °F - 70.0 °F 96% 30.15 in 7.0 mi East 5.8 mph - N/A   Overcast
10:24 PM 73.0 °F - 71.1 °F 93% 30.15 in 5.0 mi East 11.5 mph - N/A   Overcast
10:54 PM 71.1 °F - 69.1 °F 93% 30.14 in 5.0 mi ENE 12.7 mph - N/A   Overcast
11:54 PM 70.0 °F - 68.0 °F 93% 30.15 in 4.0 mi East 12.7 mph - N/A   Overcast